Location: Baix
(44.7118°N, 4.7648°E)
Time: 23:57:20
(UTC+00:00)

Vanguard 3 - Pass Details

Date: 29 November 2020
Orbit: 508 x 3262 km, 33.3° (Epoch: 19 January)

Event Time Altitude Azimuth Distance (km) Brightness Sun altitude
Rises 02:35:16 0° 250° (WSW) 3,750 - -45.5°
Reaches altitude 10° 02:41:10 10° 211° (SSW) 3,483 - -44.5°
Maximum altitude 02:42:24 10° 203° (SSW) 3,599 - -44.3°
Drops below altitude 10° 02:43:44 10° 195° (SSW) 3,778 - -44.1°
Exits shadow 02:47:42 - 176° (S) 4,545 10.9 -43.4°
Sets 02:52:33 0° 161° (SSE) 5,715 11.6 -42.5°
